Location: Kalberh�ni
(46.4610°N, 7.2453°E)
Time: 06:04:14
(UTC+00:00)

Cosmos 1802 Rocket - Pass Details

Date: 29 October 2021
Orbit: 955 x 1010 km, 82.9° (Epoch: 05 December)

Event Time Altitude Azimuth Distance (km) Brightness Sun altitude
Rises 05:26:54 0° 353° (N) 3,690 6.8 -7.7°
Reaches altitude 10° 05:29:26 10° 356° (N) 2,746 6.2 -7.3°
Maximum altitude 05:35:43 68° 79° (E) 1,065 4.5 -6.2°
Drops below altitude 10° 05:42:03 10° 162° (SSE) 2,764 6.8 -5.2°
Sets 05:44:36 0° 165° (SSE) 3,716 7.5 -4.7°
